Lid_Strength_Index
2 2 2 2 2 2 2 2 2 2 2 2 2 2 1 3 4 5 8 5 2 -1 -1 1 2 2 2 4 3 4 8 10 10 9 9 6 7 5 4 5 5 4 4 3 2
2 2 2 2 2 2 2 2 2 2 2 2 2 2 1 1 5 8 2 -3 -1 -1 1 3 4 3 4 5 4 6 9 9 7 7 7 6 6 6 6 6 6 5 3 2 2
2 2 2 2 2 2 2 2 2 2 2 2 2 2 1 1 8 9 -3 -1 -1 -1 1 4 2 3 5 5 5 6 9 7 7 6 5 6 6 5 6 7 6 6 5 3 3
2 2 2 2 2 2 2 2 2 2 2 2 2 2 1 2 9 6 -1 -2 -1 -0 5 5 4 5 6 7 5 8 6 6 6 5 6 6 5 6 5 6 4 4 3 3 3
2 2 2 2 2 2 2 2 2 3 3 3 2 2 3 8 7 0 -1 -1 -0 3 6 5 5 5 6 6 6 7 7 6 5 5 5 5 6 6 6 4 3 3 3 4 3
2 2 2 2 2 2 2 2 3 3 3 3 2 2 5 9 5 -1 -0 0 1 6 7 6 4 4 5 6 7 6 6 6 6 6 5 7 6 6 5 4 4 4 4 3 3
2 2 2 2 2 2 2 3 3 3 3 2 2 2 7 7 2 3 3 4 6 7 7 6 4 4 4 7 5 6 8 6 6 6 6 5 8 8 5 4 5 5 4 4 3
2 2 2 2 2 2 3 3 3 2 2 2 1 3 8 6 4 3 3 4 5 6 6 6 4 3 5 4 6 7 7 10 7 6 6 6 10 7 5 5 6 5 5 4 4
2 2 2 2 3 3 3 3 2 1 1 0 3 6 8 2 4 3 3 5 5 6 5 5 5 5 5 7 8 8 11 10 9 6 7 7 9 7 5 5 6 5 5 4 4
2 2 2 3 3 3 4 3 2 1 1 1 2 7 6 5 4 4 3 4 5 5 5 6 7 6 6 8 10 10 11 10 10 8 7 8 8 7 6 6 6 6 5 5 4
2 3 3 3 3 4 4 5 5 5 5 5 5 7 6 3 3 4 4 5 6 6 7 8 8 8 7 7 7 8 9 10 8 7 8 8 8 8 6 6 6 6 5 5 4
3 3 3 3 4 4 4 5 5 4 6 5 5 5 4 3 5 4 4 6 7 8 8 9 9 7 6 7 8 8 9 9 8 8 8 8 8 7 7 6 6 6 5 5 4
3 3 3 4 4 3 4 5 3 4 7 6 5 5 5 4 5 5 5 6 7 8 8 10 9 9 7 8 8 8 8 9 9 8 8 8 9 9 7 6 5 5 4 4 4
3 3 4 4 4 4 4 3 2 3 8 7 6 5 4 4 5 3 5 5 8 8 8 8 10 9 8 8 7 9 8 8 8 9 10 8 12 9 8 8 7 6 5 5 4
3 4 4 4 4 5 3 3 3 5 13 6 6 3 3 5 5 5 5 6 7 8 8 8 9 8 8 7 7 8 8 8 8 9 10 10 11 9 8 8 8 6 5 4 4
4 4 4 4 4 4 3 3 5 9 13 8 6 6 6 5 6 6 6 5 6 8 8 8 7 7 7 6 6 6 7 8 8 9 11 10 10 10 8 8 7 6 5 4 4
5 5 5 4 4 3 2 5 9 12 8 9 8 7 7 7 6 6 7 8 8 10 10 9 8 7 7 8 7 7 8 11 12 12 12 9 11 9 7 6 6 6 5 4 4
5 6 5 4 3 2 4 7 13 11 9 7 8 8 8 7 7 7 7 8 9 8 9 10 11 8 7 7 8 7 8 12 14 13 11 10 11 8 6 6 5 5 5 4 4
6 4 4 3 3 3 5 10 11 10 8 10 9 9 9 8 7 7 7 8 7 8 9 10 10 8 8 7 6 9 10 8 11 11 11 10 9 7 6 6 6 5 5 5 4
6 5 4 3 3 5 7 11 10 8 8 8 10 9 10 9 9 8 8 7 7 7 6 8 9 8 8 7 8 8 8 10 10 13 13 11 10 9 7 7 7 6 6 5 4
5 5 3 3 5 6 9 8 8 7 8 9 10 10 9 9 9 9 8 7 7 8 7 8 9 9 8 9 9 9 9 10 9 10 12 12 10 6 7 7 7 6 6 5 4
6 7 3 3 7 9 9 8 9 7 7 7 8 8 8 8 9 8 8 7 7 7 8 7 8 9 8 8 9 9 8 8 10 10 9 10 10 6 7 7 6 6 5 5 4
8 7 2 3 9 8 8 7 7 7 7 8 8 8 8 8 9 8 8 7 8 7 7 8 8 10 9 8 8 8 9 8 8 8 11 11 10 7 7 7 6 6 5 5 4
7 8 5 4 6 7 8 8 8 5 6 6 7 6 8 8 8 8 9 8 8 7 4 5 9 8 10 9 8 9 10 9 8 9 9 9 8 7 8 7 6 6 5 5 5
7 8 6 9 8 8 8 8 9 9 6 6 7 7 8 9 8 9 8 8 8 7 6 6 9 9 9 8 8 8 9 9 9 7 9 8 8 6 7 7 6 5 5 5 5
7 7 6 7 7 8 8 8 9 8 8 8 8 7 7 9 8 9 8 7 7 7 8 8 8 7 9 8 8 10 9 8 9 8 7 9 8 7 7 6 6 6 6 6 5
4 4 6 8 8 8 8 8 8 7 7 6 7 8 8 7 6 6 5 5 6 7 8 7 8 8 10 9 9 10 9 9 8 7 7 8 7 7 7 7 6 6 5 5 5